User: anonymous   Login
Location: Adrasan
(36.3319°N, 30.4314°E)
Time: 21:32:29
(UTC+00:00)
Language:

OAO 2 Rocket - Orbit

View from above orbital plane
View from above orbital plane
View from above satellite
View from above satellite

Ground track
Ground track

The orbit data is extracted from the following two-line orbital elements,

1  3598U 68110B   24104.01524367  .00000694  00000-0  15813-3 0  9990
2  3598  34.9934 298.7907 0049011 290.9423  68.6030 14.55773210929508
Epoch (UTC): 13 April 2024 00:21:57
Eccentricity: 0.0049011
inclination: 34.9934°
perigee height: 672 km
apogee height: 741 km
right ascension of ascending node: 298.7907°
argument of perigee: 290.9423°
revolutions per day: 14.55773210
mean anomaly at epoch: 68.6030°
orbit number at epoch: 92950

The dashed part of the orbit path shows where the satellite is in the earth's shadow,  

DLR